Temperature
3 3 3 3 3 3 3 3 2 3 4 4 4 4 4 5 5 4 5 5 5 5 6 6 6 6 6 6 6 6 6 6 6 7 7 6 6 6
3 3 3 3 3 3 2 2 2 2 2 3 3 4 4 4 4 4 4 5 5 5 5 5 5 6 6 6 6 6 6 6 6 6 6 6 6 6
2 2 2 2 2 2 2 2 2 2 2 2 3 3 3 4 4 4 4 4 4 5 5 5 5 5 5 5 5 6 6 6 6 6 6 6 6 6
2 2 2 2 2 2 2 2 2 2 2 2 2 2 3 3 3 3 4 4 4 4 5 5 5 5 5 5 5 5 5 5 5 5 6 5 5 5
2 1 1 1 1 1 1 2 2 2 1 2 2 2 2 3 3 3 3 3 4 4 4 4 5 5 5 5 5 5 5 5 5 5 5 5 5 5
1 1 1 1 1 1 1 1 1 1 1 1 1 1 2 2 2 2 3 3 3 4 4 4 4 4 4 4 4 5 5 5 5 5 5 5 5 5
1 1 1 1 1 1 1 1 1 1 1 1 1 1 1 1 2 2 2 3 3 3 3 4 3 3 3 4 4 4 4 4 4 4 4 4 4 4
1 1 1 1 1 1 1 1 1 1 1 1 1 1 1 1 1 2 2 2 2 2 3 3 3 3 3 3 3 4 4 4 4 4 4 4 4 4
1 0 0 1 1 1 1 1 1 1 1 1 1 1 1 1 1 1 2 2 2 2 2 2 2 2 2 3 3 3 3 3 3 3 3 3 3 3
0 0 0 0 0 0 0 0 0 1 1 1 1 1 1 1 1 1 1 1 2 2 2 1 2 2 2 2 2 2 2 2 2 2 2 3 3 3
-0 -0 -0 -0 -0 -0 -0 0 0 0 1 1 1 1 1 1 1 1 1 1 1 1 1 1 1 1 1 2 2 2 2 2 2 2 2 2 2 2
-1 -0 -0 -0 -0 -0 -0 -0 -0 0 0 0 1 1 1 1 1 1 1 1 1 1 1 1 1 1 0 0 1 1 1 1 2 2 2 2 2 2
-1 -1 -1 -1 -1 -1 -1 -0 -0 -0 -0 -0 0 0 0 0 0 1 1 1 1 1 1 0 0 0 -0 -1 -0 -0 0 1 1 1 1 1 2 2
-1 -1 -1 -1 -1 -1 -1 -1 -0 -0 -0 -0 -0 -0 -0 0 0 0 0 1 1 1 1 0 0 0 0 -1 -1 -1 -0 -0 0 0 1 1 1 1
-2 -2 -2 -1 -1 -1 -1 -1 -1 -1 -1 -1 -1 -0 -0 -0 -0 0 0 0 0 0 0 0 0 0 0 -0 -1 -1 -1 -1 -0 -0 0 0 0 0
-2 -2 -2 -2 -1 -2 -1 -1 -1 -1 -1 -1 -1 -1 -0 -0 -0 -0 -0 -0 -0 -0 -0 -0 -0 -0 -0 -0 -1 -1 -1 -1 -1 -0 -0 -0 -0 -0
-2 -2 -2 -2 -2 -2 -2 -2 -2 -2 -2 -1 -1 -1 -1 -1 -1 -1 -0 -0 -0 -1 -1 -1 -1 -1 -1 -1 -1 -1 -1 -1 -1 -1 -1 -1 -1 -1
-2 -2 -2 -2 -2 -2 -2 -2 -2 -2 -2 -2 -1 -1 -1 -1 -1 -1 -1 -1 -1 -1 -1 -1 -1 -1 -1 -2 -1 -1 -1 -1 -1 -1 -1 -1 -1 -1
-2 -2 -3 -3 -3 -3 -3 -3 -3 -2 -2 -2 -1 -1 -1 -1 -1 -1 -1 -1 -1 -1 -1 -2 -2 -1 -2 -2 -2 -2 -1 -1 -1 -1 -1 -1 -1 -2
-3 -3 -3 -3 -3 -3 -3 -3 -3 -2 -2 -2 -1 -1 -1 -1 -1 -1 -1 -1 -1 -1 -2 -2 -2 -2 -1 -2 -2 -2 -2 -2 -2 -2 -2 -2 -2 -2
-3 -3 -3 -3 -3 -3 -3 -3 -3 -2 -2 -2 -2 -1 -1 -1 -1 -2 -2 -2 -2 -2 -2 -2 -2 -2 -1 -2 -2 -2 -2 -2 -2 -2 -2 -2 -2 -2
-4 -4 -3 -3 -3 -3 -3 -3 -2 -2 -2 -2 -2 -2 -2 -2 -2 -2 -2 -2 -2 -2 -2 -2 -2 -2 -2 -2 -2 -2 -3 -3 -3 -2 -2 -2 -2 -2
-4 -4 -4 -3 -3 -3 -3 -3 -2 -2 -2 -2 -2 -2 -2 -2 -2 -2 -2 -2 -2 -2 -2 -2 -3 -2 -2 -2 -2 -3 -3 -3 -3 -3 -3 -2 -2 -2
Wind_Speed
10 11 10 9 9 10 10 10 10 12 12 12 9 9 8 9 9 10 12 13 14 15 14 14 14 14 14 15 15 15 15 14 13 13 13 14 15 14
9 11 11 10 9 9 9 10 10 11 12 10 10 11 11 10 11 12 12 13 14 14 14 14 15 15 14 14 14 14 13 13 13 13 14 13 13 14
11 11 12 12 10 9 9 10 10 10 12 12 11 11 13 12 10 10 10 9 9 12 14 15 15 14 13 12 12 12 13 13 12 13 13 13 12 12
12 12 13 11 12 11 10 11 11 11 11 13 11 11 13 11 10 9 8 8 8 10 12 14 14 13 12 11 11 11 12 12 12 12 12 12 12 12
12 13 13 12 13 11 11 11 10 10 10 11 11 10 10 9 9 9 8 7 7 7 9 11 11 11 10 10 10 10 10 11 11 11 10 10 11 11
12 12 12 12 13 12 11 11 10 10 10 10 10 10 9 9 7 7 7 6 6 6 6 6 6 7 8 8 9 9 9 10 10 9 8 8 8 9
12 12 12 13 14 13 11 11 10 9 9 9 10 9 9 8 7 6 6 6 6 5 4 4 3 4 4 6 7 7 7 8 7 7 7 6 6 6
11 11 11 12 13 16 17 16 14 12 11 11 10 11 11 10 8 6 6 6 6 4 3 3 3 3 3 3 4 5 6 6 6 5 5 5 5 5
11 11 10 10 12 12 13 15 15 15 16 14 13 13 12 10 9 8 7 6 6 4 3 3 3 3 3 3 5 5 5 6 6 5 5 4 4 4
11 11 11 12 11 11 11 11 11 11 12 12 12 12 11 10 8 7 6 5 4 3 2 2 3 2 2 2 3 5 5 5 6 5 5 4 3 2
10 10 11 11 12 13 11 11 11 10 9 10 11 10 11 10 7 4 4 3 3 3 2 2 2 2 3 2 0 4 5 4 4 4 4 4 3 2
8 9 10 11 12 12 10 9 10 9 8 7 7 7 7 7 6 6 6 5 3 3 3 1 2 1 1 3 1 1 2 3 3 4 5 4 4 2
8 8 8 10 11 12 11 9 9 8 7 6 5 4 4 3 3 3 3 4 4 3 2 1 1 1 1 1 2 2 1 1 2 3 4 5 3 2
8 7 7 10 11 11 9 7 7 7 4 4 3 3 3 2 2 1 1 1 1 2 2 2 2 2 2 1 1 1 1 2 2 2 2 4 4 4
7 8 10 10 10 8 6 6 6 4 3 3 3 3 2 2 1 1 1 2 3 3 1 1 2 2 2 2 1 1 1 2 2 2 2 3 2 2
7 7 9 8 6 6 6 5 4 3 2 2 2 2 1 1 1 1 2 2 3 2 3 2 1 2 2 2 3 2 1 1 1 2 3 3 2 2
7 5 4 4 4 4 4 4 3 3 2 2 2 1 1 1 1 1 1 2 2 1 2 3 4 5 4 3 3 2 3 2 2 2 3 3 3 2
6 4 4 4 4 4 4 4 3 3 2 2 1 1 1 1 1 1 2 3 3 3 3 3 4 4 3 4 4 2 3 2 2 3 3 3 3 2
4 4 4 4 4 4 3 3 4 3 3 2 1 1 2 2 2 2 3 3 4 3 2 2 2 3 3 2 3 3 2 3 3 3 3 2 2 2
4 4 5 4 4 4 3 3 3 3 2 1 1 1 2 3 3 3 3 4 4 3 3 2 1 2 3 3 2 2 2 3 3 3 3 3 3 3
5 5 5 4 4 4 3 3 3 3 2 1 0 1 2 3 3 3 4 5 4 4 3 2 1 3 3 4 4 3 4 5 3 3 3 4 3 3
5 5 5 5 4 4 4 3 2 2 1 0 1 1 2 3 4 4 4 4 4 4 4 3 3 3 3 5 6 5 5 5 7 8 6 3 2 2
5 5 5 5 4 4 3 3 3 2 1 0 1 1 2 3 4 4 5 5 5 5 5 5 4 5 6 6 7 6 7 6 5 6 7 9 9 8
Wind_Direction
262 261 260 260 260 259 260 261 269 279 280 283 281 276 278 271 261 261 264 256 252 251 250 250 251 250 252 254 248 239 241 243 245 245 253 254 251 253
263 261 262 262 262 259 257 258 259 265 273 281 284 283 282 275 266 268 267 261 253 250 248 247 248 246 247 251 247 239 238 238 239 243 249 251 254 250
268 265 265 263 262 261 258 258 258 258 266 277 282 284 284 278 276 274 270 263 256 247 248 247 246 241 242 244 242 240 236 236 237 242 247 246 250 251
271 270 268 266 262 261 259 258 259 257 261 272 280 281 280 276 276 275 276 268 262 253 252 248 244 239 236 236 236 238 235 235 237 241 241 240 245 249
271 270 269 266 265 263 263 262 261 260 259 265 274 278 279 273 275 274 276 275 270 258 255 248 238 230 230 234 234 233 232 232 235 238 241 240 245 247
273 272 272 266 266 267 265 265 266 265 263 264 269 275 275 274 268 266 273 277 276 270 259 253 227 222 224 228 231 230 227 225 228 234 238 237 241 244
276 274 273 270 268 267 266 265 265 265 266 266 267 272 272 270 264 263 264 276 282 272 263 262 244 233 222 213 215 215 219 217 219 225 225 227 233 237
280 280 277 272 270 267 267 266 263 263 265 265 265 264 267 268 269 264 263 268 278 270 257 264 255 253 252 238 204 198 205 212 212 207 212 221 228 231
280 281 282 280 278 274 272 269 265 262 259 261 262 262 265 263 261 261 260 262 269 264 264 275 274 272 270 229 200 201 206 200 190 197 209 218 218 213
282 283 282 283 282 281 279 277 274 271 266 262 259 261 263 263 258 262 263 273 285 275 265 272 289 294 308 275 193 194 185 192 198 201 202 200 202 206
290 286 282 283 284 284 281 280 280 280 278 267 266 266 266 266 255 249 243 232 257 285 295 254 265 316 325 307 249 160 172 183 190 185 178 167 155 154
297 292 287 286 287 288 283 279 279 282 283 282 274 268 264 260 254 241 235 224 231 266 278 253 239 272 329 332 350 86 114 124 145 158 163 155 142 137
297 297 298 300 299 298 294 285 279 283 281 276 276 276 271 264 264 251 245 229 229 244 238 250 231 249 228 281 330 346 13 61 90 121 137 135 128 131
298 298 302 307 306 305 302 296 293 292 280 272 266 266 265 260 249 234 216 176 241 238 238 246 239 221 202 223 283 344 23 42 57 85 103 108 102 104
303 308 311 312 313 313 312 310 304 296 279 268 264 267 267 247 220 170 115 99 67 33 346 271 210 192 178 181 196 191 20 31 56 74 85 91 96 101
309 315 319 323 320 319 319 320 314 304 286 269 269 266 257 232 195 184 165 138 98 45 30 43 122 149 136 130 142 140 100 106 81 70 76 74 80 84
312 313 320 326 328 327 327 328 324 320 317 295 264 242 199 160 168 166 153 145 143 140 85 72 75 80 80 108 129 121 111 101 105 91 93 84 67 74
313 315 316 315 316 319 322 323 324 322 310 300 274 208 168 160 146 129 137 138 134 130 125 126 122 109 90 52 38 128 112 104 100 101 104 101 84 66
329 321 314 312 312 314 314 315 316 315 312 303 270 196 169 163 153 140 136 132 128 128 132 149 155 145 130 104 39 38 116 117 111 101 94 92 103 83
338 328 322 314 310 311 312 311 311 312 315 312 273 185 165 156 147 142 138 135 133 128 115 90 98 127 133 128 108 53 67 121 122 111 94 85 82 90
337 332 328 324 316 312 310 309 308 308 310 312 101 148 151 145 143 143 138 132 131 129 122 94 57 100 113 109 102 83 63 70 92 112 108 100 93 89
334 331 327 325 322 316 311 312 316 312 311 12 116 145 149 145 143 142 141 138 130 126 117 106 102 106 109 115 113 104 84 72 71 73 66 68 106 115
329 326 325 324 322 320 315 312 314 312 300 180 140 149 150 139 136 135 134 133 132 129 122 111 98 96 98 107 111 105 99 93 87 78 67 65 77 88
Height
1424 1423 1422 1421 1420 1419 1418 1417 1416 1411 1407 1406 1406 1404 1403 1402 1401 1400 1399 1399 1399 1400 1401 1401 1402 1403 1404 1405 1406 1407 1409 1410 1412 1413 1414 1415 1415 1416
1419 1417 1416 1414 1414 1413 1412 1411 1409 1407 1403 1400 1399 1398 1397 1395 1395 1394 1393 1392 1392 1392 1393 1394 1395 1395 1397 1398 1399 1400 1401 1403 1405 1406 1407 1408 1408 1409
1412 1411 1409 1408 1407 1406 1405 1404 1403 1401 1398 1394 1393 1392 1391 1389 1388 1387 1387 1386 1386 1386 1386 1387 1387 1388 1389 1391 1391 1392 1394 1396 1397 1399 1400 1401 1402 1402
1406 1404 1402 1401 1400 1399 1398 1397 1396 1395 1393 1389 1387 1386 1384 1383 1382 1381 1381 1380 1379 1379 1379 1379 1380 1381 1382 1383 1384 1386 1387 1389 1391 1392 1393 1394 1396 1396
1400 1398 1396 1394 1393 1392 1391 1390 1389 1388 1387 1384 1381 1380 1378 1377 1376 1375 1375 1374 1373 1373 1373 1373 1373 1374 1375 1377 1378 1379 1381 1383 1384 1386 1387 1388 1389 1390
1393 1392 1389 1388 1386 1386 1385 1384 1383 1382 1380 1379 1376 1374 1373 1372 1371 1370 1369 1368 1368 1367 1367 1367 1367 1368 1369 1371 1373 1373 1375 1377 1378 1380 1381 1382 1383 1384
1387 1385 1384 1382 1380 1380 1379 1378 1377 1376 1374 1373 1371 1369 1367 1367 1366 1365 1364 1363 1362 1362 1362 1362 1363 1364 1365 1366 1367 1368 1370 1371 1373 1374 1375 1376 1378 1379
1381 1379 1377 1376 1374 1373 1372 1371 1371 1370 1368 1367 1365 1364 1362 1362 1361 1360 1359 1358 1357 1358 1358 1358 1359 1360 1361 1362 1363 1364 1365 1367 1368 1369 1370 1371 1373 1374
1375 1373 1371 1369 1368 1367 1365 1364 1364 1363 1363 1362 1360 1358 1357 1357 1357 1356 1355 1354 1353 1353 1354 1354 1355 1356 1357 1358 1359 1360 1361 1363 1364 1365 1367 1367 1368 1370
1370 1368 1366 1363 1362 1361 1360 1358 1357 1356 1356 1355 1354 1352 1352 1352 1352 1351 1350 1349 1349 1350 1352 1351 1352 1353 1354 1355 1356 1357 1358 1359 1361 1362 1363 1364 1365 1366
1365 1363 1361 1359 1357 1356 1354 1352 1351 1349 1349 1348 1347 1346 1346 1346 1347 1347 1347 1346 1345 1347 1348 1349 1349 1350 1351 1352 1353 1354 1355 1356 1357 1358 1359 1361 1362 1363
1360 1358 1356 1354 1352 1351 1349 1347 1345 1344 1343 1342 1342 1341 1341 1341 1342 1343 1343 1343 1343 1344 1345 1347 1348 1349 1349 1350 1351 1352 1353 1353 1354 1355 1356 1358 1359 1361
1356 1353 1351 1349 1347 1346 1344 1342 1341 1340 1338 1337 1337 1337 1337 1337 1337 1339 1340 1341 1341 1342 1344 1345 1346 1347 1348 1349 1350 1351 1351 1352 1353 1354 1355 1356 1358 1359
1353 1350 1347 1345 1343 1341 1339 1337 1336 1335 1334 1333 1333 1333 1333 1334 1335 1336 1337 1338 1339 1340 1342 1344 1344 1345 1346 1347 1349 1350 1351 1352 1352 1353 1354 1355 1357 1359
1350 1347 1344 1342 1340 1337 1335 1334 1333 1331 1330 1330 1329 1330 1330 1331 1332 1334 1335 1336 1338 1339 1341 1342 1343 1344 1346 1346 1348 1349 1350 1352 1353 1353 1354 1355 1356 1358
1347 1344 1341 1339 1337 1335 1333 1331 1330 1328 1328 1327 1327 1328 1329 1330 1331 1332 1333 1335 1336 1338 1340 1342 1343 1344 1345 1347 1348 1349 1351 1352 1353 1354 1354 1356 1357 1358
1344 1342 1339 1336 1334 1332 1331 1329 1328 1327 1326 1326 1326 1326 1327 1328 1329 1331 1332 1334 1335 1337 1339 1341 1343 1344 1346 1347 1348 1350 1351 1352 1354 1354 1355 1356 1358 1359
1343 1339 1337 1335 1333 1331 1329 1328 1327 1326 1325 1325 1325 1325 1326 1327 1328 1330 1332 1333 1335 1337 1339 1341 1343 1344 1346 1348 1350 1350 1351 1353 1354 1355 1356 1357 1358 1360
1341 1338 1336 1334 1332 1331 1329 1327 1326 1325 1325 1324 1324 1325 1326 1327 1328 1330 1332 1333 1335 1337 1339 1341 1343 1344 1345 1347 1351 1352 1353 1354 1355 1356 1357 1358 1359 1361
1339 1337 1335 1333 1332 1330 1328 1327 1326 1325 1324 1324 1324 1325 1326 1327 1328 1330 1332 1333 1335 1337 1339 1341 1343 1344 1345 1347 1350 1352 1354 1355 1356 1357 1358 1360 1361 1363
1339 1337 1335 1333 1331 1330 1328 1327 1326 1325 1325 1324 1325 1325 1326 1327 1329 1331 1333 1335 1336 1338 1340 1341 1343 1345 1347 1349 1351 1353 1355 1356 1358 1358 1360 1361 1362 1363
1338 1336 1334 1333 1331 1329 1328 1327 1326 1325 1325 1325 1325 1326 1327 1328 1330 1331 1333 1335 1337 1339 1341 1343 1344 1346 1348 1349 1351 1354 1356 1358 1359 1361 1362 1363 1364 1365
1338 1336 1334 1332 1331 1329 1328 1327 1326 1325 1325 1325 1326 1327 1328 1329 1331 1332 1334 1336 1338 1340 1342 1343 1346 1348 1349 1351 1353 1356 1357 1359 1361 1362 1364 1366 1367 1369